[[{"header":{"parameterUnit":"m.s-1","parameterCategory":1,"la1":30.2992,"la2":30.254,"lo1":-89.0895,"lo2":-89.0443,"dy":0.0025,"dx":0.0025,"nx":19,"ny":19,"refTime":"2026-04-07T03:00:00:Z","depth":0,"parameterNumber":2,"parameterNumberName":"U-component_of_WINDS"},"data":[0,0,0,-4.666,-4.6662,-4.6706,-4.6706,-4.6784,-4.6785,0,0,0,0,0,0,0,0,0,0,0,-4.6658,-4.6659,-4.666,-4.6662,-4.6706,-4.6706,-4.6784,-4.6785,0,0,0,0,0,0,0,0,0,0,0,-4.6658,-4.6659,-4.666,-4.6662,-4.6706,-4.6706,-4.6784,-4.6743,0,0,0,0,0,0,0,0,0,0,-4.6696,-4.6705,-4.6659,-4.666,-4.6662,-4.6706,-4.6706,-4.6741,-4.6745,-4.6772,0,-4.6798,0,-4.6793,-4.6791,-4.6792,0,0,0,-4.6654,-4.6701,-4.6703,-4.666,-4.6663,-4.6706,-4.6684,-4.6743,-4.6749,-4.6779,-4.6799,-4.6801,-4.6794,-4.6792,-4.6792,-4.6973,-4.6974,0,0,-4.6651,-4.6673,-4.6699,-4.6707,-4.67,-4.6683,-4.6685,-4.6746,-4.677,-4.6799,-4.6803,-4.6795,-4.6793,-4.6793,-4.6972,-4.6973,0,0,0,-4.665,-4.6671,-4.6671,-4.6704,-4.6711,-4.6684,-4.6687,-4.6767,-4.6765,-4.6803,-4.6796,-4.6793,-4.6794,-4.697,-4.6972,-4.7055,0,0,0,-4.6648,-4.667,-4.6671,-4.6684,-4.671,-4.6739,-4.6707,-4.6761,-4.6767,-4.6796,-4.6793,-4.6795,-4.6969,-4.6971,-4.705,-4.7091,0,0,0,-4.6652,-4.667,-4.6681,-4.6685,-4.6705,-4.6738,-4.6739,-4.6762,-4.6763,-4.6792,-4.6795,-4.6968,-4.6971,-4.7045,-4.7083,-4.7147,0,0,0,-4.6662,-4.6752,-4.6682,-4.678,-4.6705,-4.6788,-4.6738,-4.6799,-4.6833,-4.6794,-4.6969,-4.6972,-4.7043,-4.7078,-4.7142,-4.7206,-4.7233,0,0,-4.6788,-4.6768,-4.6824,-4.6763,-4.6864,-4.6779,-4.6893,-4.6903,-4.6886,-4.6945,-4.6949,-4.7051,-4.7083,-4.7146,-4.7378,-4.7401,0,0,0,-4.6872,-4.6913,-4.6935,-4.6968,-4.6978,-4.6992,-4.6983,-4.6987,-4.7036,-4.6921,-4.7089,-4.7107,-4.7144,-4.7173,-4.7192,-4.7223,-4.6986,-4.6986,-4.6985,-4.7081,-4.7055,-4.7147,-4.7127,-4.7161,-4.7151,-4.7177,-4.7181,-4.7144,-4.7185,-4.7203,-4.7347,-4.7382,-4.7396,-4.7429,-4.7232,-4.7232,-4.7233,-4.7233,-4.7265,-4.7321,-4.727,-4.7342,-4.7314,-4.7374,-4.737,-4.7342,-4.7396,-4.7331,-4.7361,-4.7295,-4.7422,-4.7449,-4.7239,-4.7238,-4.7237,-4.7237,-4.7236,-4.7402,-4.7424,-4.7427,-4.7475,-4.7515,-4.7491,-4.7545,-4.7517,-4.7491,-4.7522,-4.7539,-4.7538,-4.7535,-4.7532,-4.7532,-4.7533,-4.7533,-4.7533,-4.7534,-4.7543,-4.7544,-4.7593,-4.7613,-4.7632,-4.7654,-4.7647,-4.7665,-4.7679,-4.7655,-4.7655,-4.7616,-4.7438,-4.7395,-4.7541,-4.754,-4.7539,-4.7538,-4.7538,-4.7743,-4.7694,-4.7769,-4.7789,-4.7811,-4.7854,-4.7818,-4.7858,-4.7869,-4.7898,-4.7852,-4.7724,-4.7703,-4.7687,-4.7652,-4.7856,-4.7856,-4.7856,-4.7856,-4.7861,-4.7846,-4.7918,-4.7952,-4.7981,-4.7956,-4.8045,-4.8041,-4.803,-4.8036,-4.8002,-4.7952,-4.7937,-4.7924,-4.7904,-4.787,-4.8125,-4.8125,-4.8126,-4.7984,-4.7971,-4.8052,-4.8039,-4.8055,-4.807,-4.8153,-4.8195,-4.8171,-4.8136,-4.804,-4.8029,-4.7948,-4.7922,-4.7887,-4.7856,-4.7794,0,0]},{"header":{"parameterUnit":"m.s-1","parameterCategory":1,"la1":30.2992,"la2":30.254,"lo1":-89.0895,"lo2":-89.0443,"dy":0.0025,"dx":0.0025,"nx":19,"ny":19,"refTime":"2026-04-07T03:00:00:Z","depth":0,"parameterNumber":3,"parameterNumberName":"V-component_of_WINDS"},"data":[0,0,0,-2.4342,-2.4343,-2.4392,-2.4392,-2.4457,-2.4458,0,0,0,0,0,0,0,0,0,0,0,-2.433,-2.4331,-2.4342,-2.4344,-2.4392,-2.4392,-2.4457,-2.4458,0,0,0,0,0,0,0,0,0,0,0,-2.433,-2.4331,-2.4331,-2.4344,-2.4392,-2.4392,-2.4457,-2.4419,0,0,0,0,0,0,0,0,0,0,-2.4372,-2.4362,-2.433,-2.4331,-2.4344,-2.4392,-2.4392,-2.4417,-2.4421,-2.4436,0,-2.445,0,-2.4455,-2.4462,-2.4462,0,0,0,-2.4342,-2.4359,-2.437,-2.4331,-2.4345,-2.4392,-2.437,-2.442,-2.4424,-2.4442,-2.4451,-2.4454,-2.4456,-2.4463,-2.4463,-2.4555,-2.4556,0,0,-2.4339,-2.434,-2.4367,-2.4373,-2.4366,-2.4368,-2.4371,-2.4422,-2.4433,-2.4452,-2.4455,-2.4457,-2.4463,-2.4464,-2.4555,-2.4556,0,0,0,-2.4333,-2.4338,-2.4348,-2.4371,-2.4379,-2.437,-2.4373,-2.443,-2.4433,-2.4456,-2.4458,-2.4463,-2.4464,-2.4554,-2.4555,-2.4582,0,0,0,-2.4331,-2.4334,-2.4347,-2.4348,-2.4378,-2.4405,-2.438,-2.443,-2.4436,-2.4458,-2.4463,-2.4465,-2.4554,-2.4555,-2.4581,-2.4596,0,0,0,-2.4326,-2.4334,-2.4341,-2.4348,-2.4369,-2.4405,-2.4411,-2.4431,-2.4437,-2.4462,-2.4465,-2.4553,-2.4555,-2.4579,-2.4593,-2.4622,0,0,0,-2.4321,-2.4364,-2.4342,-2.439,-2.4368,-2.442,-2.441,-2.4449,-2.4474,-2.4464,-2.4554,-2.4555,-2.4578,-2.4591,-2.462,-2.4648,-2.4659,0,0,-2.4376,-2.4371,-2.4399,-2.4381,-2.4437,-2.4413,-2.4473,-2.4495,-2.4496,-2.4536,-2.4538,-2.4581,-2.4593,-2.4622,-2.4717,-2.4726,0,0,0,-2.4417,-2.4437,-2.4452,-2.4476,-2.4493,-2.451,-2.4523,-2.4531,-2.4564,-2.4517,-2.4598,-2.4605,-2.4622,-2.4636,-2.4643,-2.4658,-2.4561,-2.4561,-2.456,-2.4496,-2.4496,-2.4543,-2.4549,-2.4571,-2.4584,-2.4603,-2.4615,-2.4607,-2.4627,-2.4639,-2.4698,-2.4713,-2.4719,-2.4735,-2.4652,-2.4652,-2.4652,-2.4652,-2.4578,-2.4608,-2.4596,-2.4639,-2.4637,-2.4673,-2.4685,-2.4679,-2.4712,-2.4688,-2.4703,-2.4679,-2.4729,-2.4743,-2.4654,-2.4654,-2.4654,-2.4653,-2.4653,-2.4632,-2.4646,-2.4655,-2.469,-2.4716,-2.4719,-2.4752,-2.4749,-2.4746,-2.4761,-2.4775,-2.4774,-2.4776,-2.4767,-2.4767,-2.4767,-2.4768,-2.4768,-2.4768,-2.4686,-2.4695,-2.4723,-2.4745,-2.476,-2.4779,-2.4791,-2.4806,-2.4822,-2.4817,-2.4817,-2.4809,-2.4733,-2.4715,-2.4771,-2.4771,-2.477,-2.477,-2.477,-2.4774,-2.4753,-2.4797,-2.4812,-2.4837,-2.4865,-2.486,-2.489,-2.4901,-2.4918,-2.4905,-2.4849,-2.4844,-2.4837,-2.4823,-2.4904,-2.4904,-2.4904,-2.4904,-2.4821,-2.4818,-2.4862,-2.4887,-2.491,-2.491,-2.4959,-2.4969,-2.4975,-2.4982,-2.4969,-2.4949,-2.4943,-2.4941,-2.4933,-2.492,-2.5023,-2.5023,-2.5023,-2.4876,-2.4875,-2.4918,-2.4924,-2.4944,-2.4961,-2.5007,-2.5036,-2.5038,-2.5028,-2.4988,-2.4983,-2.495,-2.4939,-2.4931,-2.4918,-2.4894,0,0]}]]